Tracking 20719 objects as of 25-May-2020
HD Live streaming from Space Station
objects crossing your sky now

WESTFORD NEEDLES

Track WESTFORD NEEDLES now!
10-day predictions
WESTFORD NEEDLES is classified as:


NORAD ID: 3257
Int'l Code: 1963-014BX
Perigee: 3,151.9 km
Apogee: 4,148.5 km
Inclination: 87.3 °
Period: 166.4 minutes
Semi major axis: 10021 km
RCS: 0.1816 m2 (medium)
Launch date: May 9, 1963
Source: United States (US)
Launch site: AIR FORCE WESTERN TEST RANGE (AFWTR)
aabbcc
Your satellite tracking list
Your tracking list is empty




NASA's NSSDC Master Catalog

Two Line Element Set (TLE):
1  3257U 63014BX  20142.01643269 +.00000236 +00000-0 +95794-1 0  9997
2  3257 087.2768 000.9297 0497243 140.5263 223.2931 08.65407084207142
Source of the keplerian elements: AFSPC